[[{"header":{"parameterUnit":"m.s-1","parameterCategory":1,"la1":30.2992,"la2":30.254,"lo1":-89.0895,"lo2":-89.0443,"dy":0.0025,"dx":0.0025,"nx":19,"ny":19,"refTime":"2026-04-29T09:00:00:Z","depth":0,"parameterNumber":2,"parameterNumberName":"U-component_of_WINDS"},"data":[0,0,0,-3.4024,-3.4027,-3.4132,-3.4132,-3.4286,-3.4287,0,0,0,0,0,0,0,0,0,0,0,-3.4005,-3.4007,-3.4024,-3.4027,-3.4132,-3.4132,-3.4285,-3.4287,0,0,0,0,0,0,0,0,0,0,0,-3.4005,-3.4006,-3.4008,-3.4028,-3.4132,-3.4132,-3.4285,-3.4199,0,0,0,0,0,0,0,0,0,0,-3.4094,-3.4088,-3.4006,-3.4008,-3.4028,-3.4132,-3.4132,-3.4195,-3.4204,-3.4246,0,-3.4287,0,-3.429,-3.4299,-3.4299,0,0,0,-3.4018,-3.408,-3.4097,-3.4008,-3.4029,-3.4132,-3.4082,-3.42,-3.4211,-3.4259,-3.4289,-3.4294,-3.4292,-3.43,-3.4301,-3.4573,-3.4575,0,0,-3.4013,-3.4031,-3.409,-3.4105,-3.409,-3.4079,-3.4086,-3.4206,-3.424,-3.429,-3.4297,-3.4295,-3.4301,-3.4302,-3.4571,-3.4573,0,0,0,-3.4002,-3.4027,-3.4041,-3.4099,-3.4117,-3.4082,-3.409,-3.4234,-3.4237,-3.4299,-3.4297,-3.4302,-3.4304,-3.4569,-3.4572,-3.4674,0,0,0,-3.3998,-3.4021,-3.4039,-3.4051,-3.4115,-3.4177,-3.4116,-3.4229,-3.4242,-3.4296,-3.4302,-3.4306,-3.4568,-3.4571,-3.4667,-3.472,0,0,0,-3.3994,-3.402,-3.4039,-3.4052,-3.4098,-3.4174,-3.4184,-3.4231,-3.4241,-3.4299,-3.4306,-3.4566,-3.457,-3.4661,-3.471,-3.4798,0,0,0,-3.3996,-3.4128,-3.4041,-3.4188,-3.4097,-3.4236,-3.4183,-3.4286,-3.4348,-3.4303,-3.4568,-3.4572,-3.4659,-3.4704,-3.4792,-3.4877,-3.4914,0,0,-3.4173,-3.415,-3.4235,-3.416,-3.432,-3.4219,-3.4394,-3.4433,-3.4422,-3.4523,-3.4529,-3.467,-3.4709,-3.4797,-3.511,-3.5139,0,0,0,-3.4298,-3.4359,-3.4397,-3.4458,-3.4491,-3.4524,-3.4534,-3.4549,-3.4634,-3.4478,-3.4724,-3.4747,-3.4797,-3.4837,-3.4862,-3.4905,-3.459,-3.459,-3.459,-3.4576,-3.4554,-3.4693,-3.4685,-3.4743,-3.4752,-3.4798,-3.4819,-3.478,-3.4838,-3.4869,-3.5061,-3.5109,-3.5127,-3.5172,-3.491,-3.4911,-3.4911,-3.4911,-3.4835,-3.492,-3.4863,-3.4979,-3.4955,-3.5051,-3.5065,-3.5033,-3.512,-3.5036,-3.508,-3.4993,-3.516,-3.5198,-3.4919,-3.4918,-3.4917,-3.4916,-3.4915,-3.5017,-3.5054,-3.5069,-3.5153,-3.522,-3.5205,-3.5291,-3.5265,-3.5241,-3.5284,-3.5315,-3.5313,-3.5309,-3.53,-3.5301,-3.5301,-3.5302,-3.5302,-3.5303,-3.5201,-3.5214,-3.529,-3.5336,-3.5371,-3.5413,-3.5423,-3.5456,-3.5487,-3.5462,-3.5462,-3.5418,-3.518,-3.5122,-3.5313,-3.5311,-3.531,-3.5309,-3.5308,-3.5476,-3.5409,-3.5526,-3.5562,-3.5613,-3.5682,-3.5646,-3.5717,-3.5741,-3.5784,-3.5729,-3.5557,-3.5532,-3.5512,-3.5464,-3.5733,-3.5733,-3.5733,-3.5733,-3.5631,-3.5615,-3.5729,-3.5787,-3.584,-3.582,-3.5953,-3.5961,-3.5959,-3.5972,-3.5929,-3.5862,-3.5843,-3.5829,-3.5802,-3.5757,-3.6094,-3.6094,-3.6095,-3.58,-3.5788,-3.5906,-3.5903,-3.5941,-3.5974,-3.6098,-3.6166,-3.615,-3.6109,-3.5982,-3.5967,-3.5859,-3.5824,-3.5784,-3.5743,-3.5659,0,0]},{"header":{"parameterUnit":"m.s-1","parameterCategory":1,"la1":30.2992,"la2":30.254,"lo1":-89.0895,"lo2":-89.0443,"dy":0.0025,"dx":0.0025,"nx":19,"ny":19,"refTime":"2026-04-29T09:00:00:Z","depth":0,"parameterNumber":3,"parameterNumberName":"V-component_of_WINDS"},"data":[0,0,0,-4.1913,-4.1915,-4.1961,-4.1961,-4.2031,-4.2032,0,0,0,0,0,0,0,0,0,0,0,-4.1907,-4.1908,-4.1913,-4.1915,-4.1961,-4.1961,-4.2031,-4.2032,0,0,0,0,0,0,0,0,0,0,0,-4.1907,-4.1908,-4.1909,-4.1915,-4.1961,-4.1961,-4.2031,-4.1992,0,0,0,0,0,0,0,0,0,0,-4.1944,-4.1947,-4.1908,-4.1909,-4.1915,-4.1961,-4.1961,-4.199,-4.1994,-4.2015,0,-4.2036,0,-4.2035,-4.2037,-4.2037,0,0,0,-4.1909,-4.1943,-4.1949,-4.1909,-4.1916,-4.1961,-4.1939,-4.1992,-4.1997,-4.2021,-4.2037,-4.2039,-4.2036,-4.2038,-4.2038,-4.2178,-4.2179,0,0,-4.1906,-4.192,-4.1945,-4.1952,-4.1947,-4.1937,-4.194,-4.1995,-4.2013,-4.2037,-4.2041,-4.2038,-4.2038,-4.2039,-4.2177,-4.2178,0,0,0,-4.1903,-4.1918,-4.1922,-4.195,-4.1958,-4.1939,-4.1942,-4.2011,-4.2011,-4.2041,-4.2038,-4.2039,-4.204,-4.2176,-4.2178,-4.2236,0,0,0,-4.1901,-4.1916,-4.1921,-4.193,-4.1957,-4.1985,-4.1957,-4.2007,-4.2013,-4.2038,-4.2039,-4.2041,-4.2175,-4.2177,-4.2232,-4.2261,0,0,0,-4.1902,-4.1916,-4.1925,-4.1931,-4.1951,-4.1984,-4.1987,-4.2008,-4.2012,-4.2038,-4.2041,-4.2174,-4.2177,-4.2229,-4.2255,-4.23,0,0,0,-4.1906,-4.1978,-4.1927,-4.2005,-4.1951,-4.202,-4.1987,-4.2038,-4.2067,-4.2039,-4.2175,-4.2177,-4.2228,-4.2252,-4.2297,-4.234,-4.236,0,0,-4.2004,-4.199,-4.2035,-4.1991,-4.2072,-4.2012,-4.2102,-4.2116,-4.2106,-4.2154,-4.2157,-4.2233,-4.2255,-4.23,-4.2467,-4.2483,0,0,0,-4.207,-4.2103,-4.2121,-4.215,-4.2163,-4.2175,-4.2174,-4.2179,-4.2219,-4.2134,-4.2262,-4.2274,-4.23,-4.232,-4.2333,-4.2354,-4.2188,-4.2187,-4.2187,-4.2228,-4.2211,-4.2283,-4.2272,-4.23,-4.2297,-4.2317,-4.2323,-4.2299,-4.2329,-4.2343,-4.2446,-4.247,-4.248,-4.2502,-4.2365,-4.2365,-4.2366,-4.2366,-4.2369,-4.2411,-4.2375,-4.2432,-4.2413,-4.2461,-4.246,-4.2441,-4.2481,-4.2435,-4.2457,-4.2407,-4.2498,-4.2516,-4.237,-4.2369,-4.2369,-4.2368,-4.2368,-4.2469,-4.2486,-4.2491,-4.2529,-4.256,-4.2545,-4.2584,-4.2566,-4.2549,-4.257,-4.2582,-4.2581,-4.2576,-4.2577,-4.2578,-4.2578,-4.2578,-4.2578,-4.2579,-4.2572,-4.2575,-4.2611,-4.2629,-4.2643,-4.266,-4.2656,-4.267,-4.268,-4.2663,-4.2663,-4.2634,-4.2511,-4.2479,-4.2584,-4.2583,-4.2582,-4.2582,-4.2582,-4.2719,-4.2682,-4.2739,-4.2753,-4.2771,-4.2801,-4.2777,-4.2805,-4.2814,-4.2833,-4.2799,-4.2712,-4.2696,-4.2685,-4.2659,-4.2804,-4.2804,-4.2804,-4.2804,-4.2803,-4.2793,-4.2845,-4.2869,-4.289,-4.2873,-4.2935,-4.2932,-4.2923,-4.2927,-4.2903,-4.2867,-4.2857,-4.2847,-4.2833,-4.2808,-4.2988,-4.2988,-4.2988,-4.2892,-4.2883,-4.294,-4.2931,-4.2942,-4.2952,-4.3009,-4.3037,-4.3019,-4.2995,-4.2929,-4.2921,-4.2863,-4.2845,-4.2819,-4.2797,-4.2751,0,0]}]]